User: anonymous   Login
Location: Hradec Kralove
(50.2170°N, 15.8330°E)
Time: 09:27:25
(UTC+01:00)
Language:

Tiangong - Orbit

View from above orbital plane
View from above orbital plane
View from above satellite
View from above satellite

Ground track
Ground track

The orbit data is extracted from the following two-line orbital elements,

1 48274U 21035A   23332.82179213  .00046192  00000-0  49636-3 0  9995
2 48274  41.4705 233.3998 0007403 240.7055 119.3045 15.62911948147575
Epoch (UTC): 28 November 2023 19:43:22
Eccentricity: 0.0007403
inclination: 41.4705°
perigee height: 374 km
apogee height: 384 km
right ascension of ascending node: 233.3998°
argument of perigee: 240.7055°
revolutions per day: 15.62911948
mean anomaly at epoch: 119.3045°
orbit number at epoch: 14757

The dashed part of the orbit path shows where the satellite is in the earth's shadow,  

DLR